Regional Weather Roundup
Issued by NWS Upton, NY

Current Version | Previous Version | Text Only | Print | Product List | Glossary Off
Versions: 1 2 3 4 5 6 7 8 9 10 11 12 13 14 15 16 17 18 19 20 21 22 23 24 25 26 27 28 29 30 31 32 33 34 35 36 37 38 39 40 41 42 43 44 45 46 47 48 49 50
324 ASUS41 KOKX 180409 RWROKX REGIONAL WEATHER ROUNDUP NATIONAL WEATHER SERVICE NEW YORK NY 1200 AM EDT WED OCT 18 2017 NOTE: "FAIR" INDICATES FEW OR NO CLOUDS BELOW 12,000 FEET WITH NO SIGNIFICANT WEATHER AND/OR OBSTRUCTIONS TO VISIBILITY. NYZ071-072-176-178-NJZ106-104-180500- NEW YORK CITY METRO AREA CITY SKY/WX TMP DP RH WIND PRES REMARKS Central Park CLEAR 53 38 56 W3 30.31F Bronx Bot Gard N/A 54 37 54 W5 30.28F LaGuardia APRT CLEAR 55 38 52 SW9 30.28F Kennedy INTL CLEAR 55 41 59 SW16 30.30F Breezy Point N/A 54 N/A N/A SW9G17 N/A Newark/Liberty CLEAR 47 38 71 S7 30.30S Teterboro CLEAR 48 38 68 S5 30.28F $$ NYZ177-179-078>081-180500- LONG ISLAND NEW YORK CITY SKY/WX TMP DP RH WIND PRES REMARKS Jones Beach N/A 55 N/A N/A W13G20 N/A Matinecock PT N/A 55 N/A N/A SW12 N/A Farmingdale CLEAR 50 41 71 SW3 30.29F MacArthur/ISP CLEAR 47 42 83 CALM 30.29S Shirley CLEAR 43 40 89 CALM 30.29F Mt Sinai Harb N/A N/A N/A N/A SW7 N/A Westhampton NOT AVBL East Hampton FAIR 36 34 94 CALM 30.28F Montauk N/A 52 44 74 SW5 30.29F $$ NYZ052-065-067-180500- HUDSON VALLEY CITY SKY/WX TMP DP RH WIND PRES REMARKS White Plains CLEAR 49 38 65 CALM 30.27F Larchmont Harb N/A 55 N/A N/A SW10 N/A Croton On Huds N/A 52 N/A N/A S7 N/A Newburgh CLEAR 46 37 71 W5 30.27S Montgomery CLEAR 42 37 82 SW3 30.26S Poughkeepsie CLEAR 39 36 89 CALM 30.26S Albany PTCLDY 46 34 62 S3 30.22S $$ NJZ001-105-106-008-010-013-015-019>022-104-180500- NEW JERSEY CITY SKY/WX TMP DP RH WIND PRES REMARKS Newark/Liberty CLEAR 47 38 71 S7 30.30S Teterboro CLEAR 48 38 68 S5 30.28F Caldwell CLEAR 45 39 79 CALM 30.30S Somerville CLEAR 38 36 92 CALM 30.29S Linden FAIR 49 38 66 CALM 30.30F Perth Amboy N/A 48 N/A N/A W6 N/A Sussex CLEAR 39 37 92 CALM 30.28S Andover N/A 40 38 93 S3 30.29S Trenton CLEAR 44 37 76 CALM 30.31S Millville CLEAR 39 38 96 CALM 30.33S Atlantic City CLEAR 41 38 89 CALM 30.32F Wrightstown NOT AVBL Toms River N/A 38 36 92 W3 30.33S Belmar CLEAR 43 39 86 SW5 30.32S $$ PAZ047>061-062-071-180500- EASTERN PENNSYLVANIA CITY SKY/WX TMP DP RH WIND PRES REMARKS Philadelphia CLEAR 52 41 66 SW9 30.32S Allentown CLEAR 42 37 82 CALM 30.30S Scranton CLEAR 46 35 65 S3 30.28R $$ CTZ002-004>006-009-010-012-RIZ004-006-007-MAZ004-011-015-180500- SOUTHERN NEW ENGLAND IN CT CITY SKY/WX TMP DP RH WIND PRES REMARKS Bradley INTL CLEAR 45 37 73 S7 30.25S Hartford CLEAR 46 39 76 S5 30.26S Danbury CLEAR 46 39 76 W6 30.28F Wtrbury/Oxford CLEAR 45 39 79 CALM 30.27F Norwalk Harbor N/A 55 N/A N/A W12G18 N/A Bridgeport CLEAR 57 43 59 SW17 30.27F Meriden CLEAR 38 37 97 CALM 30.27F New Haven CLEAR 58 41 53 SW9G18 30.27F Chester FAIR 50 41 71 VRB5 30.26F Groton CLEAR 55 43 63 SW13 30.26F Wilimantic CLEAR 38 35 89 CALM 30.27F IN RI CITY SKY/WX TMP DP RH WIND PRES REMARKS Providence CLEAR 47 40 76 SW6 30.27F Block Island CLEAR 53 43 68 W12 30.28F Westerly CLEAR 55 42 61 SW6 30.27F IN MA CITY SKY/WX TMP DP RH WIND PRES REMARKS Boston CLEAR 48 38 68 SW16G22 30.23F Worcester CLEAR 45 33 63 SW17 30.21F Westfield CLEAR 40 35 83 S6 30.24S Provincetown CLEAR 52 42 69 SW17 30.25F Nantucket CLEAR 49 42 77 W9 30.27F $$ ANZ330-335-338-340-345-350-353-355-180500- COASTAL MARINE OBSERVATIONS STATION/POSITION TIME SKY/WX TEMP WIND PRES VSBY WAVE AIR SEA DIR/SP/G HT/PER (UTC) (F) (DEG/KT/KT) (MB) (MI) (FT/S) NY HARB ENTRANCE 0350 58 65 250/ 16/ 17 1025.3 2/11 20 S FIRE ISLAND 0350 58 63 260/ 14/ 16 1026.1 2/10 GREAT SOUTH BAY 0330 59 62 260/ 14/ 16 N/A 15 E BARNEGAT LI 0330 66 N/A 3/11 HUDSON CANYON 0350 56 65 270/ 6/ 10 1026.0 3/10 KINGS POINT 0348 56 66 250/ 9/ 11 1026.2 EXECUTION ROCKS 0330 58 200/ 16/ 19 N/A WESTERN LI SOUND 0249 57 210/ 14/ 19 N/A 1/ 3 CENTRAL LI SOUND 0315 58 220/ 17/ 21 N/A 3 EASTERN LI SOUND NOT AVBL ROBBINS REEF 0348 53 240/ 12/ 13 1026.5 $$ >>>>>>>>>>>>>>>>>>>>>>>>>>>> KEY <<<<<<<<<<<<<<<<<<<<<<<<<<< > < > SKY/WX - Sky Condition/Present Weather < > TMP - Temperature in Fahrenheit < > DP - Dew Point in Fahrenheit < > RH - Relative Humidity in Percent < > WIND - Direction (from) and Speed in MPH < > PRES - Mean Sea Level Pressure (inches of Hg) < > WCI - Wind Chill Index < > VSB - VISIBILITY IN MILES < > HX - HEAT INDEX < > TC - TEMPERATURE IN CELSIUS < > VRB - VARIABLE WIND DIRECTION < > < >>>>>>>>>>>>>>>>>>>>>>>>>>>> KEY <<<<<<<<<<<<<<<<<<<<<<<<<<<

USA.gov is the U.S. government's official web portal to all federal, state and local government web resources and services.